This demonstration page uses our WeatherBlox Daily Observations layout. Learn more.

Left ArrowRight Arrow

Hourly Observations for January 13, 2015

Temp ( °F °C ) Dew Point ( °F °C ) Humidity (%) Winds ( mph kmh ) Pressure ( in mb ) Visibility ( mi km ) Precip ( " mm )
12:53 am 00:53 Cloudy 49 9.4 47 8.3 93 93 WNW 3 6 30.17 1022 10 16 0.00 0.00
1:50 am 01:50 Cloudy 48 9 46 8 94 94 NW 6 9 30.18 1022 10 16 0.00 0.00
1:53 am 01:53 Cloudy 48 8.9 46 7.8 93 93 NNW 8 13 30.16 1022 10 16 0.00 0.00
2:21 am 02:21 Cloudy 48 8.9 45 7.2 89 89 NW 9 15 30.18 1022 10 16 0.00 0.00
2:53 am 02:53 Cloudy 47 8.3 45 7.2 93 93 N 8 13 30.16 1022 9 14 0.00 0.00
3:01 am 03:01 Cloudy 47 8.3 45 7.2 93 93 NNW 5 7 30.21 1023 8 13 0.00 0.00
3:53 am 03:53 Cloudy 46 7.8 44 6.7 93 93 WNW 5 7 30.18 1022 7 11 0.00 0.00
4:53 am 04:53 Cloudy with Mist and Fog 45 7.2 43 6.1 93 93 NW 5 7 30.21 1023 6 10 0.00 0.00
5:53 am 05:53 Cloudy with Mist and Fog 44 6.7 42 5.6 93 93 NW 5 7 30.21 1023 4 6 0.00 0.00
6:53 am 06:53 Cloudy with Mist and Fog 43 6.1 41 5 93 93 NNW 8 13 30.22 1024 6 10 0.00 0.00
7:53 am 07:53 Cloudy with Mist and Fog 42 5.6 40 4.4 92 92 N 6 9 30.24 1024 5 8 0.00 0.00
8:53 am 08:53 Cloudy with Mist and Fog 42 5.6 40 4.4 92 92 NNW 8 13 30.27 1025 5 8 0.00 0.00
9:21 am 09:21 Cloudy with Mist and Fog 42 5.6 40 4.4 92 92 NNW 5 7 30.27 1025 5 8 0.00 0.00
9:53 am 09:53 Cloudy with Mist and Fog 42 5.6 40 4.4 92 92 NW 7 11 30.28 1025 5 8 0.00 0.00
10:21 am 10:21 Cloudy with Mist and Fog 42 5.6 40 4.4 92 92 NNW 6 9 30.27 1025 3 4 0.00 0.00
10:30 am 10:30 Cloudy with Mist and Fog 43 6 39 4 87 87 NW 5 7 30.30 1026 2 3 0.00 0.00
10:53 am 10:53 Cloudy with Mist and Fog 42 5.6 40 4.4 92 92 NW 7 11 30.30 1026 2 3 0.00 0.00
11:00 am 11:00 Cloudy with Mist and Fog 43 6 39 4 87 87 NW 7 11 30.30 1026 3 5 0.00 0.00
11:24 am 11:24 Cloudy with Mist and Fog 43 6 39 4 87 87 NW 7 11 30.27 1025 3 4 0.00 0.00
11:43 am 11:43 Cloudy with Mist and Fog 43 6.1 40 4.4 89 89 NW 7 11 30.27 1025 2 3 0.00 0.00
11:53 am 11:53 Cloudy with Mist and Fog 43 6.1 40 4.4 89 89 NW 6 9 30.27 1025 2 2 0.00 0.00
12:12 pm 12:12 Cloudy with Mist and Fog 43 6 41 5 93 93 NNW 6 9 30.27 1025 2 3 0.00 0.00
12:53 pm 12:53 Cloudy with Mist and Fog 43 6.1 41 5 93 93 NNW 6 9 30.25 1025 3 4 0.00 0.00
1:53 pm 13:53 Cloudy with Mist and Fog 43 6.1 41 5 93 93 NW 5 7 30.24 1024 3 4 0.00 0.00
2:27 pm 14:27 Cloudy with Mist and Fog 43 6.1 41 5 93 93 NW 5 7 30.24 1024 3 5 0.00 0.00
2:34 pm 14:34 Cloudy with Mist and Fog 43 6 41 5 93 93 WNW 7 11 30.24 1024 3 4 0.00 0.00
2:53 pm 14:53 Cloudy with Mist and Fog 43 6.1 41 5 93 93 NW 6 9 30.24 1024 2 3 0.00 0.00
3:53 pm 15:53 Cloudy with Mist and Fog 43 6.1 41 5 93 93 NW 6 9 30.25 1024 1 2 0.00 0.00
4:14 pm 16:14 Cloudy with Mist and Fog 43 6 39 4 87 87 NNW 3 6 30.24 1024 2 3 0.00 0.00
4:22 pm 16:22 Cloudy with Mist and Fog 43 6 39 4 87 87 N 6 9 30.24 1024 2 3 0.00 0.00
4:42 pm 16:42 Cloudy with Mist and Fog 43 6 39 4 87 87 N 6 9 30.24 1024 2 3 0.00 0.00
4:53 pm 16:53 Cloudy with Mist and Fog 43 6.1 40 4.4 89 89 N 3 6 30.25 1025 3 5 0.00 0.00
5:10 pm 17:10 Cloudy with Mist and Fog 43 6 41 5 93 93 Calm 30.24 1024 3 4 0.00 0.00
5:20 pm 17:20 Cloudy with Mist and Fog 43 6 39 4 87 87 NNE 3 6 30.24 1024 3 5 0.00 0.00
5:28 pm 17:28 Cloudy with Mist and Fog 43 6 39 4 87 87 Calm 30.24 1024 3 5 0.00 0.00
5:37 pm 17:37 Cloudy with Mist and Fog 42 5.6 40 4.4 92 92 NNE 3 6 30.24 1024 2 3 0.00 0.00
5:53 pm 17:53 Cloudy with Mist and Fog 42 5.6 40 4.4 92 92 NNW 3 6 30.25 1024 3 5 0.00 0.00
6:33 pm 18:33 Cloudy with Light Rain 42 5.6 40 4.4 92 92 Calm 30.27 1025 3 4 0.01 0.25
6:53 pm 18:53 Cloudy with Light Rain 42 5.6 41 5 96 96 Calm 30.27 1025 2 3 0.02 0.51
7:46 pm 19:46 Cloudy with Mist and Fog 45 7 43 6 93 93 ENE 5 7 30.27 1025 2 3 0.00 0.00
7:53 pm 19:53 Cloudy with Mist and Fog 44 6.7 42 5.6 93 93 NE 6 9 30.28 1026 3 4 0.01 0.25
8:09 pm 20:09 Cloudy with Mist and Fog 44 6.7 42 5.6 93 93 ENE 6 9 30.27 1025 4 6 0.00 0.00
8:21 pm 20:21 Cloudy with Mist and Fog 44 6.7 42 5.6 93 93 NE 6 9 30.27 1025 3 4 0.01 0.25
8:44 pm 20:44 Cloudy with Mist and Fog 43 6 41 5 93 93 ENE 8 13 30.27 1025 4 6 0.00 0.00
8:53 pm 20:53 Cloudy with Mist and Fog 43 6.1 41 5 93 93 E 7 11 30.29 1026 4 6 0.01 0.25
9:53 pm 21:53 Cloudy with Mist and Fog 42 5.6 40 4.4 92 92 ENE 9 15 30.29 1026 3 5 0.00 0.00
10:53 pm 22:53 Cloudy with Mist and Fog 41 5 39 3.9 93 93 NE 5 7 30.31 1026 4 6 0.00 0.00
11:53 pm 23:53 Cloudy with Mist and Fog 41 5 38 3.3 89 89 ENE 9 15 30.29 1026 4 6 0.01 0.25

Powered by AerisWeather